Tracking 28911 objects as of 22-May-2024
HD Live streaming from Space Station
objects crossing your sky now

SOLRAD 7B

Track SOLRAD 7B now!
10-day predictions
SOLRAD 7B is classified as:


NORAD ID: 1291
Int'l Code: 1965-016D
Perigee: 904.7 km
Apogee: 933.4 km
Inclination: 70.1 °
Period: 103.2 minutes
Semi major axis: 7290 km
RCS: 0.5012 m2 (medium)
Launch date: March 9, 1965
Source: United States (US)
Launch site: AIR FORCE WESTERN TEST RANGE (AFWTR)
Your satellite tracking list
Your tracking list is empty




NASA's NSSDC Master Catalog

Two Line Element Set (TLE):
1 01291U 65016D   24142.94463648  .00000128  00000-0  13385-3 0  9992
2 01291  70.0809  43.8568 0019711  27.7909 332.4245 13.94785441 11243
Source of the keplerian elements: AFSPC